Showing default

OPS 9331 (IDSCS 16), 2862

Orbit data source: Space-Track

OPS 9331 (IDSCS 16), 2862 is a payload satellite owned by SAMSO (US) in GEO that was launched on Sat, 01 Jul 1967 UTC via a TITAN IIIC launch vehicle from the Air Force Eastern Test Range (AFETR). Payload-class satellites include a variety of spacecraft equipped with specific instruments for various scientific and technological missions. These include communications satellites like Starlink; space stations such as the ISS; scientific satellites like the Hubble; Earth observation satellites from companies like Planet Labs, Umbra, and HawkEye 360; GPS; miniature CubeSats for education and research; and military/defense satellites.

Not visible in the next 10 days
Identifier
2862, 1967-066A
Orbit
GEO
Country
Flag of USUS
Related business
Manufacturer
Philco-Ford WDL
Mission
Non-operational Defense Communications
Bus & Motor
IDCSP, Unknown motor
Mass
45 kg wet, 45 kg dry
Launch date (UTC)
1967-07-01 (58 years ago)
Launch vehicle
TITAN IIIC
Launch site
Air Force Eastern Test Range (AFETR)
Object type
Payload
Rocket body
Debris
Shape & HBR
Poly, 0.5 m
Radar Cross Section
0.926 m², Medium (>0.1 m² and < 1m²)

Expand to show TLE details & history
Last TLE update: 1 day ago

TLE from 1 day ago
0 OPS 9331 (IDSCS 16)
1 02862U 67066A   25241.95700861 -.00000057  00000-0  00000-0 0  9996
2 02862   2.1971 104.5056 0061701 230.0320 356.3510  1.09955176133997
Epoch: 2025-08-29T22:58Z
TLE epoch observation values (Epoch: 2025-08-29T22:58:05.543Z)
Latitude
-1.59347°
Longitude
7.89559°
Altitude
33,027.868 km
Speed
3.19 km/s
True Right ascension
22h 03m 16s
True Declination
-1° 35' 30"
Sunlit
Object was in daylight at epoch
Visualization orbit readout
Latitude
Unknown
Longitude
Unknown
Altitude
Unknown
Speed
Unknown
Apparent Right ascension
Unknown
Apparent Declination
Unknown
Sunlit
N/A
Visualization observer readout
Local Sidereal Time
15:40:06
Azimuth
Unknown
Elevation
Unknown
Doppler factor
Unknown
Orbital elements
Apogee altitude
33,519.013 km
Perigee altitude
33,029.693 km
Semi-major axis
39,652.49 km
Eccentricity
0.00617
Inclination
2.1971°
RAAN
104.5056°
Arg. of periapsis
230.032°
True anomaly
356.30565°
Mean anomaly
356.351°
Eccentric anomaly
356.32836°
Mean motion
0.27488 °/min
Orbital period
1,309.68 mins
BSTAR
0
Loading maneuver chart data...
Computing Atmospheric mass density...
Loading historical data...
Loading historical data...
Loading historical data...
Loading historical data...
Loading historical data...
Loading historical data...
Loading historical data...

Documentation

Showing up to 5 results
|